When you browse on this site, cookies collect data to enhance your experience and personalize the content and advertising you see.
Visit our Privacy Policy to learn more. By continuing to use the site, you agree to this use of cookies and data.
  • Em Portugal
  • Lista de países
  • Para 7 dias
  • Temperatura da água
  • Mapas de satélite
  • Mapa do tempo
  • Widgets de tempo
  • user-avatar
    Iniciar Sessão

    Previsão horária em Ropotamo

    Hoje, 19 Dezembro, Quarta-feira

    Tempo Temperatura Precipitação Vento Pressão Humidade
    00:00 -4°C° 0.3 mm 11 m/s 763 mmHg 89%
    01:00 -4°C° 0.3 mm 11 m/s 763 mmHg 89%
    02:00 -6°C° 0 mm 12 m/s 763 mmHg 89%
    03:00 -6°C° 0.4 mm 12 m/s 763 mmHg 88%
    04:00 -6°C° 0.4 mm 12 m/s 763 mmHg 87%
    05:00 -6°C° 0.4 mm 11 m/s 763 mmHg 86%
    06:00 -6°C° 0.3 mm 11 m/s 763 mmHg 86%
    07:00 -6°C° 0.3 mm 11 m/s 764 mmHg 86%
    08:00 -7°C° 0 mm 11 m/s 764 mmHg 85%
    09:00 -7°C° 0.3 mm 11 m/s 764 mmHg 84%
    10:00 -6°C° 0.3 mm 11 m/s 764 mmHg 83%
    11:00 -6°C° 0.3 mm 11 m/s 765 mmHg 82%
    12:00 -5°C° 0.3 mm 10 m/s 765 mmHg 81%
    13:00 -4°C° 0.3 mm 10 m/s 765 mmHg 81%
    14:00 -4°C° 0.3 mm 10 m/s 765 mmHg 80%
    15:00 -4°C° 0.3 mm 10 m/s 765 mmHg 81%
    16:00 -5°C° 0.3 mm 10 m/s 765 mmHg 82%
    17:00 -5°C° 0.3 mm 10 m/s 765 mmHg 83%
    18:00 -5°C° 0.2 mm 9 m/s 765 mmHg 83%
    19:00 -5°C° 0.2 mm 9 m/s 765 mmHg 84%
    20:00 -5°C° 0.2 mm 9 m/s 765 mmHg 84%
    21:00 -5°C° 0.2 mm 8 m/s 766 mmHg 84%
    22:00 -5°C° 0.2 mm 8 m/s 766 mmHg 85%
    23:00 -4°C° 0.2 mm 7 m/s 766 mmHg 85%

    Amanhã, 20 Dezembro, Quinta-feira

    Tempo Temperatura Precipitação Vento Pressão Humidade
    00:00 -4°C° 0.1 mm 7 m/s 766 mmHg 85%
    01:00 -4°C° 0.1 mm 7 m/s 766 mmHg 85%
    02:00 -5°C° 0.1 mm 6 m/s 766 mmHg 85%
    03:00 -5°C° 0 mm 6 m/s 767 mmHg 84%
    04:00 -5°C° 0 mm 5 m/s 767 mmHg 83%
    05:00 -5°C° 0 mm 5 m/s 767 mmHg 83%
    06:00 -5°C° 0 mm 5 m/s 767 mmHg 82%
    07:00 -3°C° 0 mm 4 m/s 767 mmHg 81%
    08:00 -3°C° 0 mm 4 m/s 767 mmHg 80%
    09:00 -2°C° 0 mm 4 m/s 768 mmHg 77%
    10:00 +1°C° 0 mm 3 m/s 768 mmHg 74%
    11:00 +2°C° 0 mm 3 m/s 768 mmHg 71%
    12:00 +4°C° 0 mm 2 m/s 768 mmHg 71%
    13:00 +4°C° 0 mm 2 m/s 767 mmHg 72%
    14:00 +5°C° 0 mm 2 m/s 767 mmHg 72%
    15:00 +5°C° 0 mm 1 m/s 767 mmHg 77%
    16:00 +4°C° 0 mm 1 m/s 767 mmHg 82%
    17:00 +3°C° 0 mm 1 m/s 768 mmHg 87%
    18:00 +3°C° 0 mm 1 m/s 768 mmHg 89%
    19:00 +2°C° 0 mm 1 m/s 768 mmHg 90%
    20:00 +2°C° 0 mm 1 m/s 768 mmHg 91%
    21:00 +2°C° 0 mm 1 m/s 768 mmHg 91%
    22:00 +2°C° 0 mm 1 m/s 768 mmHg 91%
    23:00 +2°C° 0 mm 1 m/s 768 mmHg 91%

    Depois de amanhã, 21 Dezembro, Sexta-feira

    Tempo Temperatura Precipitação Vento Pressão Humidade
    00:00 +2°C° 0 mm 1 m/s 768 mmHg 91%
    01:00 +2°C° 0 mm 1 m/s 768 mmHg 91%
    02:00 +2°C° 0 mm 1 m/s 768 mmHg 90%
    03:00 +2°C° 0 mm 1 m/s 768 mmHg 90%
    04:00 +2°C° 0 mm 1 m/s 767 mmHg 90%
    05:00 +2°C° 0 mm 1 m/s 767 mmHg 90%
    06:00 +2°C° 0 mm 1 m/s 767 mmHg 90%
    07:00 +3°C° 0 mm 1 m/s 767 mmHg 90%
    08:00 +3°C° 0 mm 1 m/s 768 mmHg 91%
    09:00 +4°C° 0 mm 1 m/s 768 mmHg 89%
    10:00 +4°C° 0 mm 2 m/s 768 mmHg 86%
    11:00 +5°C° 0 mm 2 m/s 768 mmHg 84%
    12:00 +6°C° 0 mm 2 m/s 767 mmHg 84%
    13:00 +6°C° 0 mm 2 m/s 767 mmHg 84%
    14:00 +6°C° 0 mm 2 m/s 766 mmHg 84%
    15:00 +5°C° 0 mm 2 m/s 766 mmHg 87%
    16:00 +4°C° 0 mm 2 m/s 766 mmHg 89%
    17:00 +3°C° 0 mm 2 m/s 766 mmHg 91%
    18:00 +3°C° 0 mm 2 m/s 766 mmHg 90%
    19:00 +3°C° 0 mm 2 m/s 766 mmHg 89%
    20:00 +2°C° 0 mm 2 m/s 766 mmHg 88%
    21:00 +2°C° 0 mm 2 m/s 766 mmHg 87%
    22:00 +2°C° 0 mm 2 m/s 766 mmHg 86%
    23:00 +1°C° 0 mm 3 m/s 766 mmHg 84%

    22 Dezembro, Sábado

    Tempo Temperatura Precipitação Vento Pressão Humidade
    00:00 +1°C° 0 mm 3 m/s 765 mmHg 84%
    01:00 +1°C° 0 mm 3 m/s 765 mmHg 84%
    02:00 +1°C° 0 mm 3 m/s 765 mmHg 84%
    03:00 +1°C° 0 mm 3 m/s 764 mmHg 85%
    04:00 +1°C° 0 mm 3 m/s 764 mmHg 86%
    05:00 +1°C° 0 mm 3 m/s 764 mmHg 86%
    06:00 +1°C° 0 mm 3 m/s 764 mmHg 87%
    07:00 0°C° 0 mm 4 m/s 764 mmHg 89%
    08:00 0°C° 0 mm 4 m/s 764 mmHg 90%
    09:00 +3°C° 0 mm 4 m/s 764 mmHg 87%
    10:00 +4°C° 0 mm 4 m/s 764 mmHg 85%
    11:00 +6°C° 0 mm 5 m/s 764 mmHg 83%
    12:00 +6°C° 0 mm 5 m/s 763 mmHg 82%
    13:00 +7°C° 0 mm 5 m/s 762 mmHg 82%
    14:00 +7°C° 0 mm 5 m/s 762 mmHg 82%
    15:00 +7°C° 0 mm 5 m/s 762 mmHg 85%
    16:00 +6°C° 0 mm 4 m/s 762 mmHg 88%
    17:00 +5°C° 0 mm 4 m/s 762 mmHg 91%
    18:00 +5°C° 0 mm 4 m/s 762 mmHg 91%
    19:00 +5°C° 0 mm 4 m/s 762 mmHg 91%
    20:00 +5°C° 0 mm 4 m/s 762 mmHg 91%
    21:00 +5°C° 0 mm 4 m/s 762 mmHg 91%
    22:00 +5°C° 0 mm 5 m/s 761 mmHg 91%
    23:00 +5°C° 0 mm 5 m/s 761 mmHg 90%

    23 Dezembro, Domingo

    Tempo Temperatura Precipitação Vento Pressão Humidade
    00:00 +5°C° 0 mm 5 m/s 761 mmHg 91%
    01:00 +5°C° 0 mm 5 m/s 761 mmHg 91%
    02:00 +5°C° 0 mm 5 m/s 761 mmHg 91%
    03:00 +5°C° 0 mm 5 m/s 761 mmHg 90%
    04:00 +5°C° 0 mm 5 m/s 761 mmHg 89%
    05:00 +5°C° 0 mm 5 m/s 761 mmHg 88%
    06:00 +5°C° 0 mm 5 m/s 761 mmHg 86%
    07:00 +5°C° 0 mm 5 m/s 761 mmHg 85%
    08:00 +4°C° 0 mm 6 m/s 761 mmHg 83%
    09:00 +6°C° 0 mm 5 m/s 762 mmHg 79%
    10:00 +8°C° 0 mm 5 m/s 762 mmHg 74%
    11:00 +9°C° 0 mm 5 m/s 762 mmHg 70%
    12:00 +10°C° 0 mm 5 m/s 762 mmHg 69%
    13:00 +12°C° 0 mm 5 m/s 762 mmHg 68%
    14:00 +12°C° 0 mm 5 m/s 761 mmHg 66%
    15:00 +10°C° 0 mm 5 m/s 762 mmHg 70%
    16:00 +10°C° 0 mm 4 m/s 762 mmHg 74%
    17:00 +8°C° 0 mm 4 m/s 762 mmHg 78%
    18:00 +7°C° 0 mm 4 m/s 762 mmHg 79%
    19:00 +7°C° 0 mm 4 m/s 763 mmHg 80%
    20:00 +6°C° 0 mm 4 m/s 763 mmHg 81%
    21:00 +6°C° 0 mm 4 m/s 763 mmHg 80%
    22:00 +7°C° 0 mm 3 m/s 763 mmHg 80%
    23:00 +5°C° 0 mm 3 m/s 764 mmHg 80%

    24 Dezembro, Segunda-feira

    Tempo Temperatura Precipitação Vento Pressão Humidade
    00:00 +6°C° 0 mm 2 m/s 764 mmHg 80%
    01:00 +6°C° 0 mm 2 m/s 763 mmHg 80%
    02:00 +6°C° 0 mm 2 m/s 763 mmHg 80%
    03:00 +6°C° 0.1 mm 2 m/s 763 mmHg 80%
    04:00 +7°C° 0.1 mm 1 m/s 763 mmHg 80%
    05:00 +8°C° 0.1 mm 1 m/s 763 mmHg 80%
    06:00 +8°C° 0.2 mm 1 m/s 763 mmHg 80%
    07:00 +7°C° 0.2 mm 1 m/s 764 mmHg 81%
    08:00 +7°C° 0.2 mm 1 m/s 764 mmHg 81%
    09:00 +9°C° 0.1 mm 1 m/s 764 mmHg 78%
    10:00 +10°C° 0.1 mm 1 m/s 763 mmHg 74%
    11:00 +11°C° 0.1 mm 1 m/s 763 mmHg 71%
    12:00 +11°C° 0 mm 1 m/s 763 mmHg 69%
    13:00 +12°C° 0 mm 2 m/s 762 mmHg 67%
    14:00 +13°C° 0 mm 2 m/s 762 mmHg 65%
    15:00 +12°C° 0 mm 1 m/s 762 mmHg 70%
    16:00 +11°C° 0 mm 1 m/s 761 mmHg 75%
    17:00 +10°C° 0 mm 1 m/s 761 mmHg 79%
    18:00 +10°C° 0 mm 1 m/s 761 mmHg 81%
    19:00 +9°C° 0 mm 1 m/s 761 mmHg 82%
    20:00 +9°C° 0 mm 1 m/s 761 mmHg 84%
    21:00 +8°C° 0.9 mm 2 m/s 762 mmHg 87%
    22:00 +7°C° 0.9 mm 3 m/s 762 mmHg 90%
    23:00 +6°C° 0.9 mm 4 m/s 762 mmHg 93%
    Mostrar mais